Time,TemperatureF,DewpointF,PressureIn,WindDirection,WindDirectionDegrees,WindSpeedMPH,WindSpeedGustMPH,Humidity,HourlyPrecipIn,Conditions,Clouds,dailyrainin,SoftwareType,DateUTC
2013-03-04 06:51:00,20.8,16.5,30.08,South,190,0.0,0.0,83,0.00,,,0.00,Wunderground v.1.15,2013-03-04 11:51:00,
2013-03-04 06:55:00,20.6,16.5,30.07,South,190,0.0,0.0,84,0.00,,,0.00,Wunderground v.1.15,2013-03-04 11:55:00,
2013-03-04 07:00:00,20.5,16.4,30.08,South,190,0.0,0.0,84,0.00,,,0.00,Wunderground v.1.15,2013-03-04 12:00:00,
2013-03-04 07:05:00,20.5,16.4,30.08,South,190,0.0,0.0,84,0.00,,,0.00,Wunderground v.1.15,2013-03-04 12:05:00,
2013-03-04 07:10:00,20.5,16.4,30.08,South,190,0.0,0.0,84,0.00,,,0.00,Wunderground v.1.15,2013-03-04 12:10:00,
2013-03-04 07:15:00,20.5,16.7,30.08,South,190,0.0,0.0,85,0.00,,,0.00,Wunderground v.1.15,2013-03-04 12:15:00,
2013-03-04 07:25:00,20.6,16.8,30.09,South,190,0.0,0.0,85,0.00,,,0.00,Wunderground v.1.15,2013-03-04 12:25:00,
2013-03-04 07:30:00,20.6,16.5,30.09,South,189,0.0,0.0,84,0.00,,,0.00,Wunderground v.1.15,2013-03-04 12:30:00,
2013-03-04 07:35:00,20.8,16.7,30.09,South,190,0.0,0.0,84,0.00,,,0.00,Wunderground v.1.15,2013-03-04 12:35:00,
2013-03-04 07:45:00,21.2,17.4,30.10,South,190,0.0,0.0,85,0.00,,,0.00,Wunderground v.1.15,2013-03-04 12:45:00,
2013-03-04 07:50:00,21.6,17.8,30.10,South,190,0.0,0.0,85,0.00,,,0.00,Wunderground v.1.15,2013-03-04 12:50:00,
2013-03-04 08:00:00,22.6,19.0,30.10,South,176,0.0,0.0,86,0.00,,,0.00,Wunderground v.1.15,2013-03-04 13:00:00,
2013-03-04 08:05:00,23.4,20.1,30.10,South,176,0.0,0.0,87,0.00,,,0.00,Wunderground v.1.15,2013-03-04 13:05:00,
2013-03-04 08:15:00,24.5,20.4,30.11,South,176,0.0,0.0,84,0.00,,,0.00,Wunderground v.1.15,2013-03-04 13:15:00,
2013-03-04 08:20:00,25.8,19.9,30.11,SSE,166,0.0,0.0,78,0.00,,,0.00,Wunderground v.1.15,2013-03-04 13:20:00,
2013-03-04 08:25:00,26.7,20.1,30.11,ESE,108,0.0,0.0,76,0.00,,,0.00,Wunderground v.1.15,2013-03-04 13:25:00,
2013-03-04 08:30:00,27.6,20.7,30.11,SE,139,0.0,0.0,75,0.00,,,0.00,Wunderground v.1.15,2013-03-04 13:30:00,
2013-03-04 08:40:00,28.9,20.3,30.11,SSE,159,0.0,0.0,70,0.00,,,0.00,Wunderground v.1.15,2013-03-04 13:40:00,
2013-03-04 08:45:00,29.6,20.3,30.11,SW,214,0.0,2.0,68,0.00,,,0.00,Wunderground v.1.15,2013-03-04 13:45:00,
2013-03-04 08:55:00,31.0,19.5,30.11,NNW,341,1.0,1.0,62,0.00,,,0.00,Wunderground v.1.15,2013-03-04 13:55:00,
2013-03-04 09:00:00,31.6,19.3,30.11,SW,222,1.0,2.0,60,0.00,,,0.00,Wunderground v.1.15,2013-03-04 14:00:00,
2013-03-04 09:10:00,32.3,19.2,30.11,WSW,240,1.0,1.0,58,0.00,,,0.00,Wunderground v.1.15,2013-03-04 14:10:00,
2013-03-04 09:15:00,32.8,19.2,30.11,ESE,103,1.0,1.0,57,0.00,,,0.00,Wunderground v.1.15,2013-03-04 14:15:00,
2013-03-04 09:25:00,33.5,19.0,30.11,ENE,74,1.0,1.0,55,0.00,,,0.00,Wunderground v.1.15,2013-03-04 14:25:00,
2013-03-04 09:30:00,33.7,19.2,30.11,East,89,1.0,1.0,55,0.00,,,0.00,Wunderground v.1.15,2013-03-04 14:30:00,
2013-03-04 09:35:00,34.0,18.6,30.11,SE,124,1.0,1.0,53,0.00,,,0.00,Wunderground v.1.15,2013-03-04 14:35:00,
2013-03-04 09:40:00,34.2,18.4,30.11,SSE,167,2.0,2.0,52,0.00,,,0.00,Wunderground v.1.15,2013-03-04 14:40:00,
2013-03-04 09:50:00,34.8,18.5,30.11,SE,141,1.0,1.0,51,0.00,,,0.00,Wunderground v.1.15,2013-03-04 14:50:00,
2013-03-04 09:55:00,35.1,18.8,30.11,South,181,1.0,1.0,51,0.00,,,0.00,Wunderground v.1.15,2013-03-04 14:55:00,
2013-03-04 10:00:00,35.3,18.5,30.11,South,191,1.0,1.0,50,0.00,,,0.00,Wunderground v.1.15,2013-03-04 15:00:00,
2013-03-04 10:10:00,35.9,18.1,30.11,SSW,212,1.0,2.0,48,0.00,,,0.00,Wunderground v.1.15,2013-03-04 15:10:00,
2013-03-04 10:15:00,36.2,18.4,30.11,South,190,2.0,2.0,48,0.00,,,0.00,Wunderground v.1.15,2013-03-04 15:15:00,
2013-03-04 10:25:00,36.9,18.5,30.11,ESE,122,1.0,2.0,47,0.00,,,0.00,Wunderground v.1.15,2013-03-04 15:25:00,
2013-03-04 10:30:00,37.2,17.8,30.11,ESE,115,1.0,1.0,45,0.00,,,0.00,Wunderground v.1.15,2013-03-04 15:30:00,
2013-03-04 10:40:00,37.9,18.9,30.10,SSW,194,1.0,2.0,46,0.00,,,0.00,Wunderground v.1.15,2013-03-04 15:40:00,
2013-03-04 10:45:00,38.3,18.8,30.10,SSE,158,1.0,2.0,45,0.00,,,0.00,Wunderground v.1.15,2013-03-04 15:45:00,
2013-03-04 10:55:00,38.9,19.3,30.10,SSE,158,1.0,1.0,45,0.00,,,0.00,Wunderground v.1.15,2013-03-04 15:55:00,
2013-03-04 11:00:00,39.5,18.8,30.10,SSE,155,1.0,1.0,43,0.00,,,0.00,Wunderground v.1.15,2013-03-04 16:00:00,
2013-03-04 11:10:00,40.2,18.3,30.10,SW,218,1.0,2.0,41,0.00,,,0.00,Wunderground v.1.15,2013-03-04 16:10:00,
2013-03-04 11:15:00,40.5,18.6,30.10,SE,145,1.0,2.0,41,0.00,,,0.00,Wunderground v.1.15,2013-03-04 16:15:00,
2013-03-04 11:25:00,40.4,18.5,30.10,SSW,211,1.0,3.0,41,0.00,,,0.00,Wunderground v.1.15,2013-03-04 16:25:00,
2013-03-04 11:30:00,40.4,17.4,30.09,SSW,210,2.0,2.0,39,0.00,,,0.00,Wunderground v.1.15,2013-03-04 16:30:00,
2013-03-04 11:35:00,40.6,18.1,30.09,SSW,198,1.0,2.0,40,0.00,,,0.00,Wunderground v.1.15,2013-03-04 16:35:00,
2013-03-04 11:40:00,41.0,17.9,30.09,East,92,1.0,2.0,39,0.00,,,0.00,Wunderground v.1.15,2013-03-04 16:40:00,
2013-03-04 11:50:00,41.4,17.7,30.08,SE,144,1.0,1.0,38,0.00,,,0.00,Wunderground v.1.15,2013-03-04 16:50:00,
2013-03-04 11:55:00,41.6,16.6,30.08,ESE,118,1.0,1.0,36,0.00,,,0.00,Wunderground v.1.15,2013-03-04 16:55:00,
2013-03-04 12:00:00,41.7,17.3,30.08,SE,127,1.0,1.0,37,0.00,,,0.00,Wunderground v.1.15,2013-03-04 17:00:00,
2013-03-04 12:10:00,42.1,18.3,30.08,SSE,156,1.0,1.0,38,0.00,,,0.00,Wunderground v.1.15,2013-03-04 17:10:00,
2013-03-04 12:15:00,42.5,17.4,30.08,SSW,194,1.0,1.0,36,0.00,,,0.00,Wunderground v.1.15,2013-03-04 17:15:00,
2013-03-04 12:25:00,43.0,17.2,30.08,SSE,155,1.0,2.0,35,0.00,,,0.00,Wunderground v.1.15,2013-03-04 17:25:00,
2013-03-04 12:30:00,43.4,17.5,30.08,ESE,120,2.0,2.0,35,0.00,,,0.00,Wunderground v.1.15,2013-03-04 17:30:00,
2013-03-04 12:40:00,44.3,18.3,30.07,NW,322,1.0,2.0,35,0.00,,,0.00,Wunderground v.1.15,2013-03-04 17:40:00,
2013-03-04 12:45:00,44.5,17.8,30.07,South,173,1.0,2.0,34,0.00,,,0.00,Wunderground v.1.15,2013-03-04 17:45:00,
2013-03-04 12:50:00,45.0,19.0,30.07,East,88,1.0,2.0,35,0.00,,,0.00,Wunderground v.1.15,2013-03-04 17:50:00,
2013-03-04 13:00:00,45.3,17.1,30.06,South,176,2.0,2.0,32,0.00,,,0.00,Wunderground v.1.15,2013-03-04 18:00:00,
2013-03-04 13:05:00,45.3,18.5,30.06,West,281,2.0,2.0,34,0.00,,,0.00,Wunderground v.1.15,2013-03-04 18:05:00,
2013-03-04 13:15:00,46.3,18.0,30.06,South,187,2.0,4.0,32,0.00,,,0.00,Wunderground v.1.15,2013-03-04 18:15:00,
2013-03-04 13:25:00,46.5,18.2,30.05,SSW,205,2.0,2.0,32,0.00,,,0.00,Wunderground v.1.15,2013-03-04 18:25:00,
2013-03-04 13:30:00,46.9,18.5,30.05,WNW,288,1.0,1.0,32,0.00,,,0.00,Wunderground v.1.15,2013-03-04 18:30:00,
2013-03-04 13:35:00,47.2,18.8,30.05,NNW,336,1.0,3.0,32,0.00,,,0.00,Wunderground v.1.15,2013-03-04 18:35:00,
2013-03-04 13:40:00,47.5,18.3,30.05,SSW,194,1.0,1.0,31,0.00,,,0.00,Wunderground v.1.15,2013-03-04 18:40:00,
2013-03-04 13:45:00,48.2,18.9,30.04,SE,142,1.0,1.0,31,0.00,,,0.00,Wunderground v.1.15,2013-03-04 18:45:00,
2013-03-04 13:50:00,48.5,18.4,30.04,ESE,123,1.0,1.0,30,0.00,,,0.00,Wunderground v.1.15,2013-03-04 18:50:00,
2013-03-04 13:55:00,48.2,18.2,30.04,SE,128,2.0,2.0,30,0.00,,,0.00,Wunderground v.1.15,2013-03-04 18:55:00,
2013-03-04 14:00:00,48.1,18.1,30.03,SE,138,1.0,1.0,30,0.00,,,0.00,Wunderground v.1.15,2013-03-04 19:00:00,
2013-03-04 14:10:00,48.8,17.9,30.03,SSE,148,1.0,1.0,29,0.00,,,0.00,Wunderground v.1.15,2013-03-04 19:10:00,
2013-03-04 14:15:00,49.1,19.0,30.03,South,188,1.0,1.0,30,0.00,,,0.00,Wunderground v.1.15,2013-03-04 19:15:00,
2013-03-04 14:25:00,50.1,19.0,30.03,ESE,117,1.0,1.0,29,0.00,,,0.00,Wunderground v.1.15,2013-03-04 19:25:00,
2013-03-04 14:30:00,50.3,18.4,30.03,SSW,194,1.0,1.0,28,0.00,,,0.00,Wunderground v.1.15,2013-03-04 19:30:00,
2013-03-04 14:35:00,50.3,18.4,30.03,NNE,32,1.0,3.0,28,0.00,,,0.00,Wunderground v.1.15,2013-03-04 19:35:00,
2013-03-04 14:40:00,50.3,17.5,30.02,SE,145,1.0,1.0,27,0.00,,,0.00,Wunderground v.1.15,2013-03-04 19:40:00,
2013-03-04 14:50:00,50.5,17.7,30.02,SSE,148,1.0,1.0,27,0.00,,,0.00,Wunderground v.1.15,2013-03-04 19:50:00,
2013-03-04 14:55:00,50.4,20.1,30.02,SSE,166,1.0,1.0,30,0.00,,,0.00,Wunderground v.1.15,2013-03-04 19:55:00,
2013-03-04 15:00:00,50.2,18.3,30.01,SSW,200,2.0,2.0,28,0.00,,,0.00,Wunderground v.1.15,2013-03-04 20:00:00,
2013-03-04 15:10:00,50.6,19.5,30.02,South,177,2.0,2.0,29,0.00,,,0.00,Wunderground v.1.15,2013-03-04 20:10:00,
2013-03-04 15:15:00,51.2,18.3,30.01,SSE,166,1.0,2.0,27,0.00,,,0.00,Wunderground v.1.15,2013-03-04 20:15:00,
2013-03-04 15:25:00,50.7,18.7,30.01,SSW,207,1.0,2.0,28,0.00,,,0.00,Wunderground v.1.15,2013-03-04 20:25:00,
2013-03-04 15:30:00,50.8,18.0,30.01,SSW,205,1.0,1.0,27,0.00,,,0.00,Wunderground v.1.15,2013-03-04 20:30:00,
2013-03-04 15:40:00,51.2,18.3,30.01,SSW,212,1.0,1.0,27,0.00,,,0.00,Wunderground v.1.15,2013-03-04 20:40:00,
2013-03-04 15:45:00,51.5,19.4,30.01,East,87,1.0,1.0,28,0.00,,,0.00,Wunderground v.1.15,2013-03-04 20:45:00,
2013-03-04 15:55:00,51.8,19.7,30.01,WNW,290,1.0,2.0,28,0.00,,,0.00,Wunderground v.1.15,2013-03-04 20:55:00,
2013-03-04 16:00:00,51.8,18.8,30.01,WSW,250,1.0,2.0,27,0.00,,,0.00,Wunderground v.1.15,2013-03-04 21:00:00,
2013-03-04 16:10:00,51.9,18.9,30.01,South,188,1.0,1.0,27,0.00,,,0.00,Wunderground v.1.15,2013-03-04 21:10:00,
2013-03-04 16:15:00,51.7,18.7,30.02,ESE,119,1.0,1.0,27,0.00,,,0.00,Wunderground v.1.15,2013-03-04 21:15:00,
2013-03-04 16:20:00,51.2,17.4,30.01,SSW,204,2.0,2.0,26,0.00,,,0.00,Wunderground v.1.15,2013-03-04 21:20:00,
2013-03-04 16:25:00,51.1,18.2,30.02,NW,309,2.0,2.0,27,0.00,,,0.00,Wunderground v.1.15,2013-03-04 21:25:00,
2013-03-04 16:35:00,51.0,19.0,30.01,SE,128,1.0,1.0,28,0.00,,,0.00,Wunderground v.1.15,2013-03-04 21:35:00,
2013-03-04 16:40:00,50.7,18.7,30.01,SE,136,1.0,1.0,28,0.00,,,0.00,Wunderground v.1.15,2013-03-04 21:40:00,
2013-03-04 16:45:00,50.6,17.8,30.01,SSW,195,0.0,1.0,27,0.00,,,0.00,Wunderground v.1.15,2013-03-04 21:45:00,
2013-03-04 16:55:00,50.6,18.6,30.01,SSW,197,1.0,1.0,28,0.00,,,0.00,Wunderground v.1.15,2013-03-04 21:55:00,
2013-03-04 17:00:00,50.6,18.6,30.02,NW,323,1.0,1.0,28,0.00,,,0.00,Wunderground v.1.15,2013-03-04 22:00:00,
2013-03-04 17:10:00,50.7,17.9,30.02,South,190,1.0,1.0,27,0.00,,,0.00,Wunderground v.1.15,2013-03-04 22:10:00,
2013-03-04 17:15:00,50.4,18.5,30.02,SSE,152,1.0,1.0,28,0.00,,,0.00,Wunderground v.1.15,2013-03-04 22:15:00,
2013-03-04 17:25:00,49.7,17.0,30.02,South,179,1.0,1.0,27,0.00,,,0.00,Wunderground v.1.15,2013-03-04 22:25:00,
2013-03-04 17:30:00,49.5,17.7,30.02,WSW,241,1.0,1.0,28,0.00,,,0.00,Wunderground v.1.15,2013-03-04 22:30:00,
2013-03-04 17:40:00,48.9,19.5,30.03,South,185,0.0,0.0,31,0.00,,,0.00,Wunderground v.1.15,2013-03-04 22:40:00,
2013-03-04 17:45:00,48.4,21.3,30.03,South,179,0.0,0.0,34,0.00,,,0.00,Wunderground v.1.15,2013-03-04 22:45:00,
2013-03-04 17:50:00,47.8,20.8,30.03,South,181,0.0,0.0,34,0.00,,,0.00,Wunderground v.1.15,2013-03-04 22:50:00,
2013-03-04 18:00:00,46.5,20.3,30.03,South,176,0.0,0.0,35,0.00,,,0.00,Wunderground v.1.15,2013-03-04 23:00:00,
2013-03-04 18:05:00,45.9,21.1,30.03,South,176,0.0,0.0,37,0.00,,,0.00,Wunderground v.1.15,2013-03-04 23:05:00,
2013-03-04 18:15:00,44.6,21.1,30.03,South,176,0.0,0.0,39,0.00,,,0.00,Wunderground v.1.15,2013-03-04 23:15:00,
2013-03-04 18:20:00,43.9,21.7,30.03,South,176,0.0,0.0,41,0.00,,,0.00,Wunderground v.1.15,2013-03-04 23:20:00,
2013-03-04 18:25:00,43.2,24.8,30.03,South,176,0.0,0.0,48,0.00,,,0.00,Wunderground v.1.15,2013-03-04 23:25:00,
2013-03-04 18:35:00,41.8,23.0,30.04,South,176,0.0,0.0,47,0.00,,,0.00,Wunderground v.1.15,2013-03-04 23:35:00,
2013-03-04 18:45:00,40.5,25.1,30.04,South,176,0.0,0.0,54,0.00,,,0.00,Wunderground v.1.15,2013-03-04 23:45:00,
2013-03-04 18:50:00,39.9,24.1,30.04,South,176,0.0,0.0,53,0.00,,,0.00,Wunderground v.1.15,2013-03-04 23:50:00,
2013-03-04 19:00:00,38.8,23.6,30.04,South,176,0.0,0.0,54,0.00,,,0.00,Wunderground v.1.15,2013-03-05 00:00:00,
2013-03-04 19:10:00,37.5,24.5,30.04,South,176,0.0,0.0,59,0.00,,,0.00,Wunderground v.1.15,2013-03-05 00:10:00,
2013-03-04 19:20:00,36.4,23.8,30.04,South,176,0.0,0.0,60,0.00,,,0.00,Wunderground v.1.15,2013-03-05 00:20:00,
2013-03-04 19:25:00,36.0,23.4,30.04,South,176,0.0,0.0,60,0.00,,,0.00,Wunderground v.1.15,2013-03-05 00:25:00,
2013-03-04 19:30:00,35.6,23.5,30.05,South,176,0.0,0.0,61,0.00,,,0.00,Wunderground v.1.15,2013-03-05 00:30:00,
2013-03-04 19:40:00,34.8,23.5,30.05,South,176,0.0,0.0,63,0.00,,,0.00,Wunderground v.1.15,2013-03-05 00:40:00,
2013-03-04 19:45:00,34.5,23.6,30.05,South,176,0.0,0.0,64,0.00,,,0.00,Wunderground v.1.15,2013-03-05 00:45:00,
2013-03-04 19:55:00,33.7,23.9,30.06,South,176,0.0,0.0,67,0.00,,,0.00,Wunderground v.1.15,2013-03-05 00:55:00,
2013-03-04 20:00:00,33.3,23.5,30.06,South,176,0.0,0.0,67,0.00,,,0.00,Wunderground v.1.15,2013-03-05 01:00:00,
2013-03-04 20:10:00,32.8,23.0,30.06,South,176,0.0,0.0,67,0.00,,,0.00,Wunderground v.1.15,2013-03-05 01:10:00,
2013-03-04 20:15:00,32.5,23.5,30.06,South,176,0.0,0.0,69,0.00,,,0.00,Wunderground v.1.15,2013-03-05 01:15:00,
2013-03-04 20:25:00,31.9,22.9,30.06,South,175,0.0,0.0,69,0.00,,,0.00,Wunderground v.1.15,2013-03-05 01:25:00,
2013-03-04 20:30:00,31.7,22.3,30.06,South,176,0.0,0.0,68,0.00,,,0.00,Wunderground v.1.15,2013-03-05 01:30:00,
2013-03-04 20:35:00,31.5,22.8,30.06,South,176,0.0,0.0,70,0.00,,,0.00,Wunderground v.1.15,2013-03-05 01:35:00,
2013-03-04 20:45:00,31.1,22.8,30.06,South,176,0.0,0.0,71,0.00,,,0.00,Wunderground v.1.15,2013-03-05 01:45:00,
2013-03-04 20:50:00,31.0,22.7,30.06,South,176,0.0,0.0,71,0.00,,,0.00,Wunderground v.1.15,2013-03-05 01:50:00,
2013-03-04 20:55:00,30.9,22.6,30.06,South,176,0.0,0.0,71,0.00,,,0.00,Wunderground v.1.15,2013-03-05 01:55:00,
2013-03-04 21:00:00,30.7,21.7,30.06,South,176,0.0,0.0,69,0.00,,,0.00,Wunderground v.1.15,2013-03-05 02:00:00,
2013-03-04 21:10:00,30.4,23.1,30.06,South,176,0.0,0.0,74,0.00,,,0.00,Wunderground v.1.15,2013-03-05 02:10:00,
2013-03-04 21:15:00,30.2,22.9,30.06,South,176,0.0,0.0,74,0.00,,,0.00,Wunderground v.1.15,2013-03-05 02:15:00,
2013-03-04 21:25:00,29.8,23.2,30.06,South,176,0.0,0.0,76,0.00,,,0.00,Wunderground v.1.15,2013-03-05 02:25:00,
2013-03-04 21:30:00,29.6,23.0,30.06,South,176,0.0,0.0,76,0.00,,,0.00,Wunderground v.1.15,2013-03-05 02:30:00,
2013-03-04 21:40:00,29.5,22.9,30.06,South,176,0.0,0.0,76,0.00,,,0.00,Wunderground v.1.15,2013-03-05 02:40:00,
2013-03-04 21:45:00,29.5,23.5,30.06,South,176,0.0,0.0,78,0.00,,,0.00,Wunderground v.1.15,2013-03-05 02:45:00,
2013-03-04 21:50:00,29.4,23.4,30.07,South,176,0.0,0.0,78,0.00,,,0.00,Wunderground v.1.15,2013-03-05 02:50:00,
2013-03-04 22:00:00,29.1,22.8,30.07,South,176,0.0,0.0,77,0.00,,,0.00,Wunderground v.1.15,2013-03-05 03:00:00,
2013-03-04 22:10:00,29.0,23.0,30.07,South,176,0.0,0.0,78,0.00,,,0.00,Wunderground v.1.15,2013-03-05 03:10:00,
2013-03-04 22:15:00,29.0,22.7,30.07,South,176,0.0,0.0,77,0.00,,,0.00,Wunderground v.1.15,2013-03-05 03:15:00,
2013-03-04 22:20:00,29.1,23.1,30.07,South,176,0.0,0.0,78,0.00,,,0.00,Wunderground v.1.15,2013-03-05 03:20:00,
2013-03-04 22:30:00,29.2,23.2,30.07,South,176,0.0,0.0,78,0.00,,,0.00,Wunderground v.1.15,2013-03-05 03:30:00,
2013-03-04 22:35:00,29.2,23.2,30.07,South,176,0.0,0.0,78,0.00,,,0.00,Wunderground v.1.15,2013-03-05 03:35:00,
2013-03-04 22:40:00,29.3,23.3,30.07,South,176,0.0,0.0,78,0.00,,,0.00,Wunderground v.1.15,2013-03-05 03:40:00,
2013-03-04 22:45:00,29.4,23.7,30.07,South,176,0.0,0.0,79,0.00,,,0.00,Wunderground v.1.15,2013-03-05 03:45:00,
2013-03-04 22:55:00,29.6,23.9,30.07,South,176,0.0,0.0,79,0.00,,,0.00,Wunderground v.1.15,2013-03-05 03:55:00,
2013-03-04 23:00:00,29.6,24.2,30.07,South,176,0.0,0.0,80,0.00,,,0.00,Wunderground v.1.15,2013-03-05 04:00:00,
2013-03-04 23:10:00,29.8,24.4,30.07,South,176,0.0,0.0,80,0.00,,,0.00,Wunderground v.1.15,2013-03-05 04:10:00,
2013-03-04 23:15:00,29.8,24.4,30.06,South,176,0.0,0.0,80,0.00,,,0.00,Wunderground v.1.15,2013-03-05 04:15:00,
2013-03-04 23:25:00,29.9,24.2,30.06,South,176,0.0,0.0,79,0.00,,,0.00,Wunderground v.1.15,2013-03-05 04:25:00,
2013-03-04 23:30:00,29.9,24.2,30.06,South,176,0.0,0.0,79,0.00,,,0.00,Wunderground v.1.15,2013-03-05 04:30:00,
2013-03-04 23:40:00,30.0,24.6,30.06,South,176,0.0,0.0,80,0.00,,,0.00,Wunderground v.1.15,2013-03-05 04:40:00,
2013-03-04 23:45:00,30.0,24.9,30.06,South,176,0.0,0.0,81,0.00,,,0.00,Wunderground v.1.15,2013-03-05 04:45:00,
2013-03-04 23:55:00,30.2,25.1,30.07,South,176,0.0,0.0,81,0.00,,,0.00,Wunderground v.1.15,2013-03-05 04:55:00,